This is the latest recevied weather packets stored in our database for station/object N9PBY-2. If no packets are shown the sender has not sent any weather packets the latest 10 day(s).
| Time | Temp. | Humidity | Pressure | Rain* | Wind** | Luminosity | Snow |
|---|---|---|---|---|---|---|---|
| 1777751406 | 10.56° C | 35% | 1016.5 hPa | 0 mm | - | - | - |
| 1777750806 | 10.56° C | 35% | 1016.7 hPa | 0 mm | - | - | - |
| 1777750207 | 10° C | 37% | 1016.8 hPa | 0 mm | - | - | - |
| 1777749607 | 10° C | 34% | 1016.8 hPa | 0 mm | - | - | - |
| 1777749007 | 10.56° C | 35% | 1016.9 hPa | 0 mm | - | - | - |
| 1777748407 | 11.11° C | 31% | 1016.9 hPa | 0 mm | - | - | - |
| 1777747807 | 11.67° C | 36% | 1017 hPa | 0 mm | - | - | - |
| 1777747207 | 12.22° C | 32% | 1017.2 hPa | 0 mm | - | - | - |
| 1777746607 | 12.78° C | 34% | 1017.3 hPa | 0 mm | - | - | - |
| 1777746006 | 12.22° C | 30% | 1017.2 hPa | 0 mm | - | - | - |
| 1777745407 | 12.78° C | 25% | 1017.4 hPa | 0 mm | - | - | - |
| 1777744807 | 12.78° C | 27% | 1017.5 hPa | 0 mm | - | - | - |
| 1777744207 | 13.33° C | 24% | 1017.5 hPa | 0 mm | - | - | - |
| 1777743606 | 13.33° C | 29% | 1017.5 hPa | 0 mm | - | - | - |
| 1777743007 | 12.78° C | 28% | 1017.7 hPa | 0 mm | - | - | - |
| 1777742407 | 12.22° C | 26% | 1017.7 hPa | 0 mm | - | - | - |
| 1777741806 | 12.22° C | 24% | 1017.9 hPa | 0 mm | - | - | - |
| 1777741207 | 12.78° C | 24% | 1017.9 hPa | 0 mm | - | - | - |
| 1777740607 | 12.78° C | 29% | 1017.8 hPa | 0 mm | - | - | - |
| 1777740007 | 12.22° C | 26% | 1018 hPa | 0 mm | - | - | - |
| 1777739406 | 11.67° C | 27% | 1018.1 hPa | 0 mm | - | - | - |
| 1777738808 | 11.67° C | 25% | 1018.2 hPa | 0 mm | - | - | - |
| 1777738207 | 11.11° C | 26% | 1018.3 hPa | 0 mm | - | - | - |
| 1777737607 | 11.11° C | 28% | 1018.4 hPa | 0 mm | - | - | - |
| 1777737006 | 11.11° C | 30% | 1018.4 hPa | 0 mm | - | - | - |
* Rain latest hour (hover to see other rain measurements)
** Current wind speed in m/s (hover to see current wind gust speed)